Location: Unspecified
(0.0000°N, 0.0000°E)
Time: 01:22:55
(UTC+00:00)

Vanguard 3 - Pass Details

Date: 24 November 2019
Orbit: 508 x 3263 km, 33.3° (Epoch: 11 December)

Event Time Altitude Azimuth Distance (km) Brightness Sun altitude
Rises 14:58:26 0° 308° (NW) 7,091 12.2 38.8°
Reaches altitude 10° 15:06:29 10° 326° (NW) 6,194 11.8 37.0°
Maximum altitude 15:17:32 17° 1° (N) 5,423 11.3 34.5°
Drops below altitude 10° 15:27:26 10° 36° (NE) 5,510 11.0 32.3°
Sets 15:33:46 0° 55° (NE) 6,035 11.1 30.9°
